AirNav   Air Wisconsin pilot careers
 
 1623 users online  

N71 Donegal Springs Airpark
Mount Joy/Marietta, Pennsylvania, USA

GOING TO MOUNT JOY/MARIETTA?


FAA INFORMATION EFFECTIVE 21 JUNE 2018

Location

FAA Identifier: N71
Lat/Long: 40-05-31.9440N / 076-34-27.6790W
40-05.532400N / 076-34.461317W
40.0922067 / -76.5743553
(estimated)
Elevation: 458 ft. / 140 m (estimated)
Variation: 09W (1975)
From city: 3 miles SW of central business district of the associated city
Time zone: UTC -4 (UTC -5 during Standard Time)
Zip code: 17547

Airport Operations

Airport use: Open to the public
Activation date: 05/1947
Control tower: no
ARTCC: NEW YORK CENTER
FSS: WILLIAMSPORT FLIGHT SERVICE STATION
NOTAMs facility: IPT (NOTAM-D service available)
Attendance: MON-FRI 0800-1700, ALL SAT UNATTND, ALL SUN UNATTND
Pattern altitude: 1258 ft. MSL
Wind indicator: yes
Segmented circle: no
Lights: ACTVT MIRL RY 10/28 - CTAF.
Beacon: white-green (lighted land airport)
ACTV BCN ON CTAF

Airport Communications

CTAF/UNICOM: 122.8
HARRISBURG APPROACH: 126.45
HARRISBURG DEPARTURE: 126.45
CLEARANCE DELIVERY: 127.05
WX ASOS at MDT (11 nm NW): PHONE 717-944-1372
WX ASOS at LNS (13 nm E): 125.675 (717-569-8860)
WX ASOS at CXY (15 nm NW): PHONE 717-770-0880
WX ASOS at THV (17 nm SW): 119.275 (717-792-5529)

Nearby radio navigation aids

VOR radial/distance  VOR name  Freq  Var
LRPr272/13.1LANCASTER VOR/DME117.3009W
HARr129/26.0HARRISBURG VORTAC112.5010W
RAVr189/27.7RAVINE VORTAC114.6011W

 
NDB name  Hdg/Dist  Freq  Var  ID
BELLGROVE193/20.632810WBZJ -... --.. .---

Airport Services

Fuel available: 100LL
Parking: tiedowns
Airframe service: MAJOR
Powerplant service: MAJOR
Bottled oxygen: NONE
Bulk oxygen: NONE

Runway Information

Runway 10/28

Dimensions: 3250 x 50 ft. / 991 x 15 m
Surface: asphalt, in fair condition
Weight bearing capacity: 
Single wheel: 12.5
Runway edge lights: medium intensity
RUNWAY 10  RUNWAY 28
Latitude: 40-05.508200N40-05.557200N
Longitude: 076-34.809183W076-34.115083W
Elevation: 458.0 ft.400.0 ft.
Traffic pattern: leftleft
Runway heading: 094 magnetic, 085 true274 magnetic, 265 true
Displaced threshold: 390 ft.
RW 10 DSPLCD THLD BAR 300' FROM RW END, DSPLCD THLD LGTS 390' FROM RW END.
no
Markings: nonprecision, in good conditionnonprecision, in good condition
Touchdown point: yes, no lightsyes, no lights

Airport Ownership and Management from official FAA records

Ownership: Privately-owned
Owner: N71, INC.
46825 SHELTON DRIVE
LEXINGTON PARK, MD 20653
Phone 301-904-0299
Manager: BEN TRAVIS
186 AIRPORT RD
MARIETTA, PA 17547
Phone 717-928-4360

Airport Operational Statistics

Aircraft based on the field: 14
Single engine airplanes: 13
Multi engine airplanes: 1
    
Aircraft operations: avg 33/day *
50% local general aviation
42% transient general aviation
8% military
* for 12-month period ending 12 December 2017

Additional Remarks

A58-10 RWY 10; +15 FT ROAD 16 FT FROM RWY END.
A52-10 RY 10 HAS +30 FT HOUSE 190 FT FM DSPLCD THLD, 206 FT RIGHT, APCH RATIO 6:1 BASED ON DSPLCD THLD.
A57-10 RY 10 APCH SLOPE RATIO 20:1 TO DSPLCD THLD LIGHTS AT 300 FT FM RY END.

Instrument Procedures

NOTE: All procedures below are presented as PDF files. If you need a reader for these files, you should download the free Adobe Reader.

NOT FOR NAVIGATION. Please procure official charts for flight.
FAA instrument procedures published for use from 21 June 2018 at 0901Z to 19 July 2018 at 0900Z.

 
IAPs - Instrument Approach Procedures
RNAV (GPS) RWY 28   download (160KB)
VOR RWY 28   download (189KB)
NOTE: Special Take-Off Minimums/Departure Procedures apply   download (149KB)

Other nearby airports with instrument procedures:

KMDT - Harrisburg International Airport (11 nm NW)
58N - Reigle Field Airport (12 nm N)
KLNS - Lancaster Airport (13 nm E)
KCXY - Capital City Airport (15 nm NW)
08N - Keller Brothers Airport (16 nm NE)
KTHV - York Airport (17 nm SW)
9D4 - Deck Airport (19 nm NE)
 
Loc | Ops | Rwys | IFR | FBO | Links
Com | Nav | Svcs | Stats | Notes

AirNav Hotels Sweepstakes
 
Area around N71 (Donegal Springs Airpark)
 
Road maps at: MapQuest Bing Google
 
Aerial photo
WARNING: Photo may not be current or correct
Aerial photo of N71 (Donegal Springs Airpark)
Looking east.

Do you have a better or more recent aerial photo of Donegal Springs Airpark that you would like to share? If so, please send us your photo.

 
Sectional chart

 
Airport distance calculator
Flying to Donegal Springs Airpark? Find the distance to fly.

From to N71

Sunrise and sunset
Times for 25-Jun-2018
 Local
(UTC-4)
 Zulu
(UTC)
Morning civil twilight05:0609:06
Sunrise05:3909:39
Sunset20:3800:38
Evening civil twilight21:1101:11

Current date and time
Zulu (UTC)  25-Jun-2018 15:49:00
Local (UTC-4)  25-Jun-2018 11:49:00
 
METAR
KMDT 
11nm NW 
251456Z 35012KT 10SM SCT034 BKN250 23/15 A3008 RMK AO2 SLP186 T02330150 51011
KLNS 
13nm E 
251453Z 33011KT 10SM SCT033 23/16 A3008 RMK AO2 SLP182 T02330161 51011
KCXY 
15nm NW 
251456Z 35010KT 10SM FEW036 24/14 A3009 RMK AO2 SLP190 T02390139 51012
KTHV 
18nm SW 
251453Z AUTO 01006KT 10SM CLR 24/16 A3009 RMK AO2 SLP189 T02390161 51012
KMUI 
19nm N 
251456Z 01010G15KT 10SM SCT035 BKN250 24/14 A3008 RMK AO2A SLP187 T02360140 50012 $
TAF
KMDT 
11nm NW 
251312Z 2513/2612 31010KT P6SM SCT250 FM251600 33008KT P6SM SCT050
KLNS 
13nm E 
251313Z 2513/2612 34010KT P6SM SCT030 FM251600 33010KT P6SM SKC
KMUI 
19nm N 
251100Z 2511/2617 34012KT 9999 BKN025 QNH3002INS BECMG 2517/2518 35009KT 9999 FEW250 QNH3008INS BECMG 2602/2603 02006KT 9999 FEW250 QNH3017INS BECMG 2614/2615 16006KT 9999 FEW200 QNH3021INS TX25/2518Z TN11/2609Z
NOTAMs
Click for the latest NOTAMs
NOTAMs are issued by the DoD/FAA and will open in a separate window not controlled by AirNav.

 

 
 

FBO, Fuel Providers, and Aircraft Ground Support

  
 Business Name 
 
 Contact 
 
 Services / Description 
 
Fuel Prices
 
Comments
  
N71, Inc. 301-904-0299
no information available

If you are affiliated with N71, Inc. and would like to show here your services, contact info, web link, logo, and more, click here
100LL
SS $4.99 
 Updated 01-May-2018
 
   2 read write
SS=Self service
Update Fuel Prices
 

Would you like to see your business listed on this page?

 If your business provides an interesting product or service to pilots, flight crews, aircraft, or users of the Donegal Springs Airpark, you should consider listing it here.  To start the listing process, click on the button below
 
Add a business
 

Other Pages about Donegal Springs Airpark

Update a link
 
Copyright © AirNav, LLC. All rights reserved. Privacy Policy  Contact